EW4052 Weather Reports


time (UTC)temp
F
wind
direction
speed
knots
gust
knots
rain 1hr
in
rain 24hr
in
rain mn
in
humidity
%
barometer
mb
20260507203014 61 229 4.3 14.8 0.00 0.00 0.00 33 1009.9
20260507201511 61 233 3.5 11.3 0.00 0.00 0.00 29 1010.0
20260507200011 61 262 7.0 20.0 0.00 0.00 0.00 33 1010.3
20260507194508 61 270 8.7 15.6 0.00 0.00 0.00 35 1010.4
20260507193005 61 246 7.8 16.5 0.00 0.00 0.00 30 1010.4
20260507191506 61 250 2.6 8.7 0.00 0.00 0.00 31 1010.5
20260507190005 61 249 4.3 14.8 0.00 0.00 0.00 31 1010.7
20260507184604 61 346 0.0 7.0 0.00 0.00 0.00 33 1010.6
20260507183100 60 309 4.3 7.0 0.00 0.00 0.00 38 1010.7
20260507181558 61 251 5.2 8.7 0.00 0.00 0.00 34 1010.8
20260507180054 60 318 0.9 6.1 0.00 0.00 0.00 36 1010.9
20260507174601 59 273 0.0 7.8 0.00 0.00 0.00 34 1011.1
20260507173051 60 290 0.0 3.5 0.00 0.00 0.00 33 1011.3
20260507171600 59 280 0.0 4.3 0.00 0.00 0.00 37 1011.5
20260507170050 59 345 0.0 0.0 0.00 0.00 0.00 35 1011.6
20260507164544 58 325 0.0 4.3 0.00 0.00 0.00 40 1011.7
20260507163040 56 325 0.0 6.1 0.00 0.00 0.00 42 1011.8
20260507161538 54 338 0.9 7.8 0.00 0.00 0.00 45 1011.7
20260507160033 53 355 4.3 8.7 0.00 0.00 0.00 43 1011.8
20260507154533 52 13 4.3 9.6 0.00 0.00 0.00 48 1011.9
20260507153027 51 5 5.2 10.4 0.00 0.00 0.00 47 1011.9
20260507151522 50 20 7.0 12.2 0.00 0.00 0.00 50 1011.8
20260507150020 49 10 4.3 8.7 0.00 0.00 0.00 51 1011.9
20260507144517 48 360 5.2 8.7 0.00 0.00 0.00 54 1011.9
20260507143011 47 360 4.3 7.0 0.00 0.00 0.00 55 1012.0
20260507141508 46 348 3.5 6.1 0.00 0.00 0.00 56 1012.1
20260507140006 44 348 0.0 0.0 0.00 0.00 0.00 59 1012.1
20260507134601 43 348 0.0 6.1 0.00 0.00 0.00 61 1012.1
20260507133058 42 351 3.5 0.0 0.00 0.00 0.00 63 1012.4
20260507131558 42 355 3.5 6.1 0.00 0.00 0.00 65 1012.4
20260507130109 41 331 3.5 8.7 0.00 0.00 0.00 67 1012.4
20260507124603 42 300 5.2 10.4 0.00 0.00 0.00 67 1012.7
20260507123053 42 17 0.0 0.9 0.00 0.00 0.00 65 1012.1
20260507121550 40 20 0.0 0.0 0.00 0.00 0.00 66 1011.5
20260507120049 38 20 0.0 0.0 0.00 0.00 0.00 69 1011.4
20260507114555 37 20 0.0 0.0 0.00 0.00 0.00 68 1011.4
20260507113047 37 20 0.0 0.0 0.00 0.00 0.00 68 1011.5
20260507111550 37 20 0.0 0.0 0.00 0.00 0.00 67 1011.5
20260507110044 38 20 0.0 0.0 0.00 0.00 0.00 66 1011.9
20260507104542 39 20 0.0 0.9 0.00 0.00 0.00 66 1012.1
20260507103043 39 20 0.0 0.0 0.00 0.00 0.00 65 1012.4
20260507101547 39 20 0.0 0.0 0.00 0.00 0.00 66 1012.1
20260507100043 38 20 0.0 0.0 0.00 0.00 0.00 67 1012.4
20260507094545 38 20 0.0 0.0 0.00 0.00 0.00 69 1012.3
20260507093042 38 20 0.0 0.0 0.00 0.00 0.00 66 1012.6
20260507091539 39 20 0.0 0.0 0.00 0.00 0.00 64 1012.6
20260507090036 40 20 0.0 0.0 0.00 0.00 0.00 64 1012.9
20260507084535 40 20 0.0 0.0 0.00 0.00 0.00 66 1013.3
20260507083028 40 20 0.0 0.0 0.00 0.00 0.00 66 1013.5
20260507081527 40 24 0.9 5.2 0.00 0.00 0.00 65 1013.8
20260507080024 38 355 0.0 0.0 0.00 0.00 0.00 65 1013.7
20260507074524 37 355 0.0 0.0 0.00 0.00 0.00 67 1013.8
20260507073025 37 355 0.0 0.0 0.00 0.00 0.00 67 1013.7
20260507071522 37 355 0.0 0.0 0.00 0.00 0.00 66 1013.9
20260507070020 37 355 0.0 0.0 0.00 0.00 0.00 66 1014.1
20260507064519 38 355 0.0 0.0 0.00 0.00 0.00 64 1014.1
20260507063018 38 355 0.0 0.0 0.00 0.00 0.00 64 1014.1
20260507061517 37 360 0.0 0.0 0.00 0.00 0.00 66 1014.1
20260507060023 37 360 0.0 0.0 0.00 0.00 0.00 66 1014.2
20260507054514 36 360 0.0 0.0 0.00 0.00 0.00 66 1014.4
20260507053011 37 360 0.0 0.0 0.00 0.00 0.00 65 1014.6
20260507051508 38 360 0.0 0.0 0.00 0.00 0.00 67 1014.7
20260507050006 39 360 0.0 0.0 0.00 0.00 0.00 66 1014.7
20260507044504 40 360 0.0 0.0 0.00 0.00 0.00 62 1014.8
20260507043002 41 360 0.0 0.0 0.00 0.00 0.00 60 1014.9
20260507041501 41 26 0.0 0.0 0.00 0.00 0.00 60 1015.0
20260507040100 42 26 0.0 0.0 0.00 0.00 0.00 59 1015.1
20260507034614 44 26 0.0 5.2 0.00 0.00 0.00 56 1015.2
20260507033059 45 5 0.0 0.0 0.00 0.00 0.00 53 1015.3
20260507031559 45 360 1.7 6.1 0.00 0.00 0.00 54 1015.4
20260507024600 46 341 3.5 5.2 0.00 0.00 0.00 55 1015.4
20260507023057 47 355 4.3 7.0 0.00 0.00 0.00 55 1015.3
20260507021557 47 311 1.7 4.3 0.00 0.00 0.00 54 1015.2
20260507020055 47 290 0.0 0.0 0.00 0.00 0.00 53 1015.1
20260507014558 48 286 0.0 0.0 0.00 0.00 0.00 51 1015.0
20260507013101 48 283 0.0 0.0 0.00 0.00 0.00 50 1014.9
20260507011557 49 283 0.0 0.0 0.00 0.00 0.00 48 1014.9
20260507010053 49 281 0.0 2.6 0.00 0.00 0.00 48 1015.0
20260507004552 50 255 6.1 9.6 0.00 0.00 0.00 48 1015.0
20260507003052 50 265 7.0 11.3 0.00 0.00 0.00 47 1015.0
20260507001552 51 239 5.2 17.4 0.00 0.00 0.00 45 1015.0
20260507000054 52 249 9.6 14.8 0.00 0.00 0.00 44 1015.0
20260506234554 52 240 9.6 16.5 0.00 0.00 0.00 45 1015.1
20260506233048 51 259 9.6 16.5 0.00 0.00 0.00 47 1015.3
20260506231547 51 248 8.7 13.9 0.00 0.00 0.00 47 1015.3
20260506230047 51 242 11.3 18.2 0.00 0.00 0.00 43 1015.3
20260506224600 50 261 10.4 16.5 0.00 0.00 0.00 49 1015.4
20260506223044 51 248 13.0 20.0 0.00 0.00 0.00 46 1015.4
20260506221543 51 234 13.9 20.0 0.00 0.00 0.00 48 1015.4
20260506220041 51 268 8.7 13.9 0.00 0.00 0.00 47 1015.4
20260506214556 51 257 7.0 17.4 0.00 0.00 0.00 47 1015.6
20260506213043 51 269 9.6 16.5 0.00 0.00 0.00 46 1015.7
20260506211537 50 232 11.3 18.2 0.00 0.00 0.00 48 1015.9
20260506210040 49 230 9.6 19.1 0.00 0.00 0.00 47 1016.1
20260506204536 50 229 11.3 20.9 0.00 0.00 0.00 46 1016.2